Weather in Stavros

Greece     35°35′13″N   24°05′30″E
temp.,
°C
wind,
m/s
gust,
m/s
humid.,
%
clouds,
%
prec.,
mm/h
press.,
hPa
HPBL,
m
12 may, wed
wed1200:00+16sw22235 0.0 101439
03:00+15sw22234 0.0 101378
06:00+16ssw12270 0.0 101224
09:00+21ne22292 0.0 1012197
12:00+23nne322926 0.0 1012542
15:00+21nw3440100 0.0 1012604
18:00+22wnw57476 0.0 1011474
21:00+18wsw45520 0.0 101173
13 may, thu
thu1300:00+17sw34400 0.0 101162
03:00+17wsw35440 0.0 101090
06:00+16wsw46545 0.0 1010151
09:00+21w56441 0.0 1011431
12:00+23wnw68415 0.0 1011782
15:00+23wnw79441 0.0 1011767
18:00+22wnw79440 0.0 1011492
21:00+17wsw47585 0.0 1012196
14 may, fri
fri1400:00+16wsw46594 0.0 1013170
03:00+16wsw365148 0.0 1013160
06:00+16wsw46490 0.0 1013179
09:00+21w57390 0.0 1015446
12:00+23wnw78410 0.0 1015790
15:00+22wnw68460 0.0 1015776
18:00+21wnw67480 0.0 1015516
21:00+17wsw34550 0.0 101559
15 may, sat
sat1500:00+18sw33390 0.0 101541
03:00+18sw33350 0.0 101442
06:00+18sw44365 0.0 101344
09:00+23w47350 0.0 1014529
12:00+24wnw68395 0.0 10131103
15:00+25wnw6937100 0.0 10121099
18:00+22wnw684772 0.0 1012372
21:00+19wsw345190 0.0 101140
16 may, sun
sun1600:00+19sw354595 0.0 101068
03:00+18wsw5753100 0.0 1009174
06:00+16w68758 0.0 1009388
09:00+19w710485 0.0 1009793
12:00+21wnw810505 0.0 10101059
15:00+20wnw91150100 0.0 10101033
18:00+19w8116158 0.0 1010946
21:00+16wsw7107248 0.0 1010571